Regional Weather Roundup
Issued by NWS

Home | Current Version | Previous Version | Text Only | Print | Product List | Glossary On
Versions: 1 2 3 4 5 6 7 8 9 10 11 12 13 14 15 16 17 18 19 20 21 22 23 24 25 26 27 28 29 30 31 32 33 34 35 36 37 38 39 40 41 42 43 44 45 46 47 48 49 50
000
ASUS43 KMPX 241210
RWRMN
WEATHER ROUNDUP FOR MINNESOTA
NATIONAL WEATHER SERVICE TWIN CITIES/CHANHASSEN MN
700 AM CDT SUN SEP 24 2017


NOTE: "FAIR" INDICATES FEW OR NO CLOUDS BELOW 12,000 FEET WITH NO
SIGNIFICANT WEATHER AND/OR OBSTRUCTIONS TO VISIBILITY. N/A MEANS
CURRENT SKY AND/OR WEATHER CONDITIONS ARE NOT AVAILABLE.

MNZ060>063-068>070-241300-
   Twin Cities Metro

CITY           SKY/WX    TMP DP  RH WIND       PRES   REMARKS
TWIN CITIES    PTCLDY    71  64  78 SE7       29.94S
6HR MIN TEMP:  70; 6HR MAX TEMP:  79;

ST PAUL        CLEAR     68  66  93 CALM      29.95S
CRYSTAL        CLEAR     68  61  78 SE6       29.92S
BLAINE         PTCLDY    70  66  88 SE5       29.94S
LAKEVILLE      CLEAR     63  63 100 CALM      29.95S
EDEN PRAIRIE   CLEAR     70  63  78 SE5       29.93S
6HR MIN TEMP:  70; 6HR MAX TEMP:  75;

SOUTH ST PAUL  CLEAR     68  62  81 CALM      29.95S
LAKE ELMO      FAIR      68  63  83 SE7       29.97S
$$
MNZ001>005-007-008-013>017-022>024-027-028-241300-
   Northwest Minnesota

CITY           SKY/WX    TMP DP  RH WIND       PRES   REMARKS
BEMIDJI        CLOUDY    59  58  99 E8        29.86F
HALLOCK        LGT RAIN  52  52 100 N15       29.92F
ROSEAU         LGT RAIN  54  48  82 N9        29.90F
WARROAD        RAIN      55  52  88 NE8       29.91F
THIEF RVR FALL LGT RAIN  55  54  96 N5        29.89S
CROOKSTON      RAIN      54  54 100 N8        29.90R
FOSSTON        RAIN      55  55 100 CALM      29.88S
DETROIT LAKES  CLOUDY    61  61 100 SW6       29.88R
MOORHEAD       LGT RAIN  55  55 100 CALM      29.87S
PARK RAPIDS    CLOUDY    62  61  96 SE12      29.87S
MAHNOMEN       LGT RAIN  57  57  99 N3        29.86F
$$
MNZ006-009>011-018-025>026-241300-
   North Central Minnesota

CITY           SKY/WX    TMP DP  RH WIND       PRES   REMARKS
BAUDETTE       LGT RAIN  57  57 100 E7        29.90F
FLAG ISLAND      N/A     55 N/A N/A NE7       29.91F
INTL FALLS     CLOUDY    59  57  93 E5        29.92F
6HR MIN TEMP:  56; 6HR MAX TEMP:  59; 6HR PCP:  0.05;

WASKISH        CLOUDY    55  55 100 E7        29.88F FOG
BIG FORK       CLOUDY    57  57 100 CALM      29.91S
LONGVILLE      CLOUDY    61  61 100 SE3       29.89F FOG
GRAND RAPIDS   CLOUDY    61  60  97 SE9       29.92F
CRANE LAKE     MOCLDY    57  57 100 CALM      29.94F
ORR            CLOUDY    59  55  88 CALM      29.90S
COOK           MOCLDY    59  59 100 CALM      29.93S
WALKER         CLOUDY    60  60  99 E5        29.87F
$$
MNZ012-019>021-037-241300-
   Northeast Minnesota

CITY           SKY/WX    TMP DP  RH WIND       PRES   REMARKS
DULUTH         FOG       63  63 100 SE10      29.97R VSB 3/4
6HR MIN TEMP:  63; 6HR MAX TEMP:  65;

ELY            MOCLDY    59  59 100 CALM      29.95F
HIBBING        CLOUDY    59  59 100 E5        29.93F FOG
EVELETH        CLOUDY    60  57  91 CALM      29.95S
DULUTH HARBOR  FOG       64  63  94 E7        29.97R VSB 1/4
GRAND MARAIS     N/A     64  63  96 NE6       29.97S
$$
MNZ029>031-032-039>041-046>048-054>057-064-241300-
   West Central Minnesota

CITY           SKY/WX    TMP DP  RH WIND       PRES   REMARKS
FERGUS FALLS   CLOUDY    59  59 100 CALM      29.87F
WHEATON        CLOUDY    59  57  94 CALM      29.87F FOG
ALEXANDRIA     FOG       62  61  96 SE9       29.89S VSB 1
ELBOW LAKE     CLOUDY    62  62  99 SW5       29.88R
WADENA         CLOUDY    61  61 100 SE8       29.87S FOG
GLENWOOD       CLOUDY    63  63 100 SE9       29.89S FOG
APPLETON       CLOUDY    64  61  88 S8        29.85S
BENSON         MOCLDY    64  63  94 S9        29.88S FOG
ORTONVILLE     CLOUDY    61  59  94 N7        29.86S FOG
MADISON        CLOUDY    63  63 100 S3        29.86S FOG
WILLMAR        FAIR      64  64 100 SE7       29.90S
$$
MNZ033>034-036-042>043-049>051-058-059-241300-
   Central Minnesota

CITY           SKY/WX    TMP DP  RH WIND       PRES   REMARKS
ST CLOUD       CLEAR     63  63 100 SE7       29.91S
6HR MIN TEMP:  59; 6HR MAX TEMP:  64;

SAUK CENTRE    FOG       61  61 100 SE5       29.90S VSB 1/2
PAYNESVILLE    PTCLDY    64  64 100 SE8       29.91S
AITKIN         CLOUDY    61  59  94 SE3       29.90F FOG
PINE RIVER     FOG       59  57  94 SE8       29.92F VSB 1
BRAINERD       CLOUDY    62  62 100 SE5       29.90F FOG
STAPLES        FOG       61  61 100 SE7       29.88F VSB 3/4
LITTLE FALLS   MOCLDY    61  59  94 SE3       29.90F
LITCHFIELD     CLEAR     66  66 100 SE6       29.91S
BUFFALO        CLEAR     67  62  84 SE3       29.94S
MAPLE LAKE     CLEAR     65  65  98 SE3       29.93S
HUTCHINSON     CLOUDY    66  65  94 SE3       29.93S
$$
MNZ037-044-045-052-053-241300-
   East Central Minnesota

CITY           SKY/WX    TMP DP  RH WIND       PRES   REMARKS
PRINCETON      FOG       61  61 100 CALM      29.93S VSB 1/2
MORA           FOG       57  57 100 CALM      29.95S VSB 3/4
RUSH CITY      PTCLDY    66  63  90 SE5       29.94S
MOOSE LAKE       N/A     61  59  94 CALM      29.93R FOG
HINCKLEY       FAIR      61  61 100 CALM      29.94S
CLOQUET        FOG       64  61  88 E6        29.96R VSB 1/4
MCGREGOR       PTCLDY    61  61 100 SE3       29.92F
$$
MNZ071>073-080-081-089-090-097-098-241300-
   Southwest Minnesota

CITY           SKY/WX    TMP DP  RH WIND       PRES   REMARKS
MONTEVIDEO     CLOUDY    61  61 100 S6        29.88R
GRANITE FALLS  PTCLDY    61  60  99 SE8       29.89F FOG
CANBY          CLOUDY    59  58  97 E6        29.87F
MARSHALL       PTCLDY    57  57 100 SE9       29.88S
REDWOOD FALLS  PTCLDY    59  58  96 SE6       29.90R
OLIVIA         CLEAR     61  59  94 SE8       29.89S
PIPESTONE      PTCLDY    70  64  83 S9        29.89S
WORTHINGTON    CLEAR     67  63  87 SE8       29.93R
JACKSON        CLEAR     64  61  88 CALM      29.95R
TRACY          PTCLDY    62  63 100 S8        29.90R
SLAYTON        PTCLDY    56  50  80 S6        29.92S
$$
MNZ065>067-074>077-082>085-091>093-241300-
   South Central Minnesota

CITY           SKY/WX    TMP DP  RH WIND       PRES   REMARKS
MANKATO        CLEAR     67  63  87 SE7       29.95S
NEW ULM        CLEAR     64  63  94 S7        29.92S
ST JAMES       CLEAR     64  63  94 SE6       29.94S
FAIRMONT       CLEAR     65  63  93 S6        29.95R
FARIBAULT      CLEAR     70  63  78 S6        29.96S
OWATONNA       CLEAR     70  63  78 SE10      29.97R
WASECA         CLEAR     64  59  82 SE6       29.97S
ALBERT LEA     CLEAR     70  64  83 S6        29.98S
$$
MNZ078>079-086>088-094>096-241300-
   Southeast Minnesota

CITY           SKY/WX    TMP DP  RH WIND       PRES   REMARKS
ROCHESTER      PTCLDY    67  62  84 S10       30.01R
6HR MIN TEMP:  66; 6HR MAX TEMP:  70;

RED WING       PTCLDY    70  61  73 CALM      29.96R
STANTON        CLEAR     69  62  77 S6        29.95R
DODGE CENTER   CLEAR     70  61  73 S8        29.99S
WINONA         CLEAR     70  63  78 CALM      30.00S
AUSTIN         PTCLDY    66  61  82 SE5       29.99S
PRESTON        PTCLDY    67  60  79 CALM      30.03R
$$
ABBREVIATIONS USED IN REMARKS
   TC - TEMPERATURES IN CELSIUS
  WCI - WIND CHILL INDEX
   HX - HEAT INDEX
  VSB - VISIBILITY
$$



USA.gov is the U.S. government's official web portal to all federal, state and local government web resources and services.